Location: ??????????
(41.2581°N, 22.8006°E)
Time: 12:00:02
(UTC+00:00)

CORIOLIS - Visible Passes

Search period start: 15 March 2026 00:00
Search period end: 25 March 2026 00:00
Orbit: 815 x 836 km, 98.7° (Epoch: 14 March)

Date Brightness Start Highest point End Pass type
(mag) Time Alt. Az. Time Alt. Az. Time Alt. Az.
15 Mar 7.1 03:36:43 10° NE 03:40:17 18° E 03:43:50 10° SE visible
16 Mar 7.5 03:19:08 10° ENE 03:20:53 11° E 03:22:38 10° ESE visible
18 Mar 7.4 17:24:18 10° WSW 17:27:00 14° W 17:29:42 10° WNW visible
19 Mar 6.5 03:59:27 10° NE 04:04:04 29° E 04:08:41 10° SSE visible
19 Mar 7.1 17:03:38 10° SW 17:07:38 21° W 17:11:38 10° NW visible
20 Mar 7.1 03:40:55 10° NE 03:44:45 20° E 03:48:34 10° SE visible
21 Mar 7.4 03:23:00 10° ENE 03:25:22 13° E 03:27:43 10° ESE visible
23 Mar 7.5 17:29:18 10° WSW 17:31:28 12° W 17:33:40 10° WNW visible
24 Mar 7.1 17:08:21 10° SW 17:12:05 19° W 17:15:51 10° NW visible
